Terminal Aerodrome Forecast
Issued by NWS

Home | Current Version | Previous Version | Text Only | Print | Product List | Glossary On
Versions: 1 2 3 4 5 6 7 8 9 10 11 12 13 14 15
000
FTUS46 KMTR 262100 AAA
TAFSNS
TAF AMD
KSNS 262154Z 2622/2718 08008KT P6SM SKC
     FM270300 30007KT P6SM SKC
     FM270500 VRB03KT P6SM SKC=

USA.gov is the U.S. government's official web portal to all federal, state and local government web resources and services.